Change the Weather History Date:

Monday, November 5, 2012

  Actual Average (KDHN) Record (KDHN)
Temperature  
Mean Temperature 60 °F 62 °F  
Max Temperature 73 °F 74 °F 88 °F (1946)
Min Temperature 46 °F 49 °F 31 °F (1952)
Degree Days  
Heating Degree Days 6 5  
Month to date heating degree days 24  
Since 1 July heating degree days 83  
Growing Degree Days 10 (Base 50)    
Moisture  
Dew Point 45 °F    
Average Humidity 68    
Maximum Humidity 94    
Minimum Humidity 23    
Precipitation  
Precipitation 0.09 in 0.08 in 1.00 in (1963)
Month to date precipitation 0.42  
Year to date precipitation 45.81  
Sea Level Pressure  
Sea Level Pressure 29.99 in    
Wind  
Wind Speed 3 mph (North)    
Max Wind Speed 9 mph    
Max Gust Speed -    
Visibility 10 miles    
Events Rain , Thunderstorm    
T = Trace of Precipitation, MM = Missing Value Source: NWS Daily Summary

Daily Weather History Graph

Daily Weather History Graph

Search for Another Location

Airport or City:

Trip Planner

Search our weather history database for the weather conditions in past years. The results will help you decide how hot, cold, wet, or windy it might be!

Date:

Astronomy

Nov. 05, 2012 Rise Set
Actual Time 6:02 AM CST 4:50 PM CST
Civil Twilight 5:37 AM CST 5:15 PM CST
Nautical Twilight 5:08 AM CST 5:44 PM CST
Astronomical Twilight 4:39 AM CST 6:13 PM CST
Moon 10:26 PM CST (11/5) 11:20 AM CST (11/5)
Length of Visible Light 11h 38m
Length of Day
10h 48m
Waning Gibbous, 62% of the Moon is Illuminated
Nov 5
Waning Gibbous
Nov 6
Last Quarter
Nov 13
New
Nov 20
First Quarter
Nov 28
Full

Hourly Weather History & Observations

Time (CST) Temp. Dew Point Humidity Pressure Visibility Wind Dir Wind Speed Gust Speed Precip Events Conditions
12:53 AM 55.9 °F 51.1 °F 84% 30.03 in 10.0 mi NNW 3.5 mph - N/A   Clear
1:53 AM 53.1 °F 48.9 °F 86% 30.04 in 10.0 mi Calm Calm - N/A   Clear
2:53 AM 50.0 °F 46.9 °F 89% 30.03 in 7.0 mi Calm Calm - N/A   Clear
3:53 AM 48.9 °F 45.0 °F 86% 30.04 in 10.0 mi North 4.6 mph - N/A   Clear
4:53 AM 46.0 °F 44.1 °F 93% 30.05 in 5.0 mi Calm Calm - N/A   Clear
5:53 AM 46.0 °F 42.1 °F 86% 30.05 in 10.0 mi Calm Calm - N/A   Clear
6:53 AM 48.0 °F 43.0 °F 83% 30.08 in 10.0 mi North 4.6 mph - N/A   Clear
7:53 AM 52.0 °F 43.0 °F 71% 30.07 in 10.0 mi NNE 5.8 mph - 0.01 in   Clear
8:53 AM 57.9 °F 41.0 °F 53% 30.07 in 10.0 mi NNE 5.8 mph - N/A   Clear
9:53 AM 62.1 °F 37.9 °F 41% 30.06 in 10.0 mi East 3.5 mph - N/A   Clear
10:53 AM 68.0 °F 36.0 °F 31% 30.04 in 10.0 mi ENE 4.6 mph - N/A   Clear
11:53 AM 70.0 °F 34.0 °F 27% 30.00 in 10.0 mi Variable 5.8 mph - N/A   Clear
12:53 PM 72.0 °F 34.0 °F 25% 29.98 in 10.0 mi NE 5.8 mph - N/A   Clear
1:53 PM 72.0 °F 34.0 °F 25% 29.95 in 10.0 mi Variable 3.5 mph - N/A   Clear
2:53 PM 73.0 °F 33.1 °F 23% 29.96 in 10.0 mi Calm Calm - N/A   Clear
3:53 PM 70.0 °F 37.0 °F 30% 29.95 in 10.0 mi NW 3.5 mph - N/A   Partly Cloudy
4:53 PM 66.9 °F 41.0 °F 39% 29.97 in 10.0 mi NW 4.6 mph - N/A   Overcast
5:53 PM 64.0 °F 43.0 °F 46% 29.98 in 10.0 mi NW 9.2 mph - N/A   Overcast
6:53 PM 55.9 °F 52.0 °F 87% 29.97 in 10.0 mi Calm Calm - 0.04 in Rain Light Rain
7:53 PM 55.9 °F 52.0 °F 87% 29.94 in 10.0 mi Calm Calm - 0.00 in   Overcast
8:53 PM 55.0 °F 52.0 °F 89% 29.94 in 10.0 mi Calm Calm - 0.01 in   Overcast
9:53 PM 55.9 °F 50.0 °F 80% 29.92 in 10.0 mi Calm Calm - N/A   Overcast
10:09 PM 53.6 °F 51.8 °F 94% 29.91 in 10.0 mi Calm Calm - N/A Thunderstorm Thunderstorm
10:24 PM 55.4 °F 51.8 °F 88% 29.90 in 10.0 mi Calm Calm - N/A   Mostly Cloudy
10:53 PM 55.9 °F 52.0 °F 87% 29.90 in 10.0 mi NNW 5.8 mph - N/A   Overcast
11:16 PM 55.4 °F 53.6 °F 94% 29.90 in 10.0 mi Calm Calm - N/A Thunderstorm Thunderstorm
11:39 PM 55.4 °F 51.8 °F 88% 29.95 in 5.0 mi NNW 9.2 mph - 0.03 in Rain Rain
11:53 PM 55.0 °F 51.1 °F 86% 29.93 in 10.0 mi North 4.6 mph - 0.03 in   Overcast